Home > Weather > Lexington-Fayette > Past weeks

Flag for USA Past Weather in Lexington-Fayette, Kentucky, USA — Yesterday and Last 2 Weeks

Now
80 °F

Scattered clouds.


Feels Like: 82 °F
Forecast: 62 / 81 °F
Wind: 10 mph from North

Location: Blue Grass Airport

Current Time: Jul 1, 2016 at 8:19:37 PM

Latest Report: Jul 1, 2016 at 7:54 PM


Visibility: 10 mi

Pressure: 29.98 "Hg

Humidity: 60%

Dew Point: 65 °F

Location of Lexington-FayetteLocation

Past Weather in Lexington-Fayette — Graph

°F

Lexington-Fayette Temperature Yesterday

Maximum temperature yesterday: 82 °F (at 2:54 PM)
Minimum temperature yesterday: 58 °F (at 6:54 AM)
Average temperature yesterday: 71 °F

High & Low Weather Summary for the Past Weeks

 TemperatureHumidityPressure
High91 °F (Jun 23, 2:54 PM)96% (Jun 24, 4:54 AM)30.32 "Hg (Jun 24, 4:54 AM)
Low58 °F (Jun 29, 5:54 AM)33% (Jun 30, 3:54 PM)29.72 "Hg (Jun 16, 6:54 PM)
Average76 °F67%30.04 "Hg
* Reported Jun 16 6:54 PM — Jul 1 6:54 PM, Lexington-Fayette, Weather by CustomWeather, © 2016

Note: Actual official high and low records may vary slightly from our data, if they occured in-between our weather recording intervals... More about our weather records

Advertising

Lexington-Fayette Weather History for the Previous 24 Hours

Scroll right to see more
 ConditionsComfort  
Time TempWeatherWind HumidityBarometerVisibility
6:54 PM
Fri, Jul 1
82 °FScattered clouds.9 mph58%29.97 "Hg10 mi
5:54 PM82 °FPassing clouds.5 mph56%29.97 "Hg10 mi
4:54 PM83 °FPassing clouds.5 mph57%29.97 "Hg10 mi
3:54 PM83 °FScattered clouds.7 mph57%29.98 "Hg10 mi
2:54 PM80 °FPartly sunny.3 mph60%29.99 "Hg10 mi
1:54 PM78 °FPartly sunny.5 mph62%29.99 "Hg10 mi
12:54 PM74 °FMostly cloudy.No wind69%30.01 "Hg10 mi
11:54 AM72 °FOvercast.5 mph73%30.01 "Hg10 mi
10:54 AM74 °FLight rain. Partly sunny.12 mph64%29.99 "Hg10 mi
9:54 AM77 °FPassing clouds.10 mph56%29.97 "Hg10 mi
8:54 AM74 °FSunny.9 mph60%29.96 "Hg10 mi
7:54 AM69 °FPartly sunny.5 mph70%29.96 "Hg10 mi
6:54 AM65 °FPassing clouds.8 mph78%29.96 "Hg10 mi
5:54 AM64 °FPassing clouds.7 mph81%29.95 "Hg10 mi
4:54 AM64 °FPassing clouds.No wind78%29.94 "Hg10 mi
3:54 AM64 °FPassing clouds.6 mph81%29.94 "Hg10 mi
2:54 AM63 °FClear.No wind81%29.94 "Hg10 mi
1:54 AM69 °FClear.No wind66%29.96 "Hg10 mi
12:54 AM67 °FClear.5 mph76%29.97 "Hg10 mi
11:54 PM
Thu, Jun 30
67 °FClear.3 mph79%30.01 "Hg10 mi
10:54 PM67 °FClear.No wind79%29.99 "Hg10 mi
9:54 PM71 °FSunny.No wind66%29.98 "Hg10 mi
8:54 PM74 °FSunny.No wind60%29.98 "Hg10 mi
Weather by CustomWeather, © 2016

See weather overviewHow to use our weather pages